Location: Klein M�hlingen
(51.9472°N, 11.7453°E)
Time: 05:36:51
(UTC+00:00)

Nauka - Pass Details

Date: 29 September 2021
Orbit: 417 x 423 km, 51.6° (Epoch: 26 October)

Event Time Altitude Azimuth Distance (km) Brightness Sun altitude
Rises 18:13:47 0° 280° (W) 2,367 ? -12.9°
Reaches altitude 10° 18:15:53 10° 277° (W) 1,502 ? -13.3°
Maximum altitude 18:19:13 64° 196° (SSW) 470 ? -13.8°
Enters shadow 18:20:52 27° 122° (ESE) 845 ? -14.0°
